• en France
  • Liste des pays
  • À 7 jours
  • Température de l'eau
  • Carte satellitaire
  • Carte météo
  • Widgets météo
  • user-avatar
    Se connecter

    Météo par heure à Alajuela

    Ce jour, 21 Février, Mercredi

    Heure Température Précipitation Vent Pression Humidité
    00:00 +19°C° 0 mm 2 m/s 682 mmHg 78%
    01:00 +18°C° 0 mm 2 m/s 681 mmHg 79%
    02:00 +18°C° 0 mm 2 m/s 681 mmHg 79%
    03:00 +18°C° 0 mm 2 m/s 681 mmHg 79%
    04:00 +18°C° 0 mm 2 m/s 681 mmHg 80%
    05:00 +18°C° 0 mm 2 m/s 681 mmHg 80%
    06:00 +18°C° 0 mm 2 m/s 681 mmHg 80%
    07:00 +20°C° 0 mm 2 m/s 682 mmHg 72%
    08:00 +23°C° 0 mm 2 m/s 683 mmHg 63%
    09:00 +26°C° 0 mm 2 m/s 684 mmHg 54%
    10:00 +27°C° 0 mm 2 m/s 684 mmHg 51%
    11:00 +29°C° 0 mm 2 m/s 684 mmHg 48%
    12:00 +30°C° 0 mm 3 m/s 684 mmHg 45%
    13:00 +29°C° 0 mm 3 m/s 683 mmHg 50%
    14:00 +28°C° 0 mm 2 m/s 683 mmHg 54%
    15:00 +26°C° 0 mm 2 m/s 682 mmHg 59%
    16:00 +25°C° 0,1 mm 2 m/s 682 mmHg 68%
    17:00 +23°C° 0,1 mm 2 m/s 681 mmHg 76%
    18:00 +21°C° 0,1 mm 1 m/s 681 mmHg 85%
    19:00 +21°C° 0 mm 1 m/s 682 mmHg 85%
    20:00 +20°C° 0 mm 1 m/s 682 mmHg 85%
    21:00 +20°C° 0 mm 1 m/s 682 mmHg 85%
    22:00 +20°C° 0 mm 1 m/s 682 mmHg 84%
    23:00 +20°C° 0 mm 1 m/s 682 mmHg 83%

    Demain, 22 Février, Jeudi

    Heure Température Précipitation Vent Pression Humidité
    00:00 +20°C° 0 mm 1 m/s 682 mmHg 82%
    01:00 +20°C° 0,1 mm 1 m/s 682 mmHg 82%
    02:00 +20°C° 0,1 mm 1 m/s 682 mmHg 83%
    03:00 +20°C° 0,1 mm 1 m/s 681 mmHg 84%
    04:00 +20°C° 0 mm 1 m/s 682 mmHg 84%
    05:00 +20°C° 0 mm 1 m/s 682 mmHg 84%
    06:00 +20°C° 0 mm 1 m/s 682 mmHg 84%
    07:00 +21°C° 0 mm 2 m/s 683 mmHg 75%
    08:00 +24°C° 0 mm 2 m/s 684 mmHg 66%
    09:00 +26°C° 0 mm 2 m/s 685 mmHg 57%
    10:00 +27°C° 0 mm 2 m/s 685 mmHg 54%
    11:00 +28°C° 0 mm 2 m/s 684 mmHg 51%
    12:00 +29°C° 0 mm 3 m/s 684 mmHg 48%
    13:00 +28°C° 0,1 mm 3 m/s 683 mmHg 52%
    14:00 +27°C° 0,1 mm 2 m/s 683 mmHg 55%
    15:00 +26°C° 0,1 mm 2 m/s 682 mmHg 58%
    16:00 +25°C° 0,1 mm 2 m/s 682 mmHg 65%
    17:00 +23°C° 0,1 mm 2 m/s 681 mmHg 73%
    18:00 +21°C° 0,1 mm 1 m/s 681 mmHg 80%
    19:00 +20°C° 0 mm 1 m/s 682 mmHg 80%
    20:00 +20°C° 0 mm 1 m/s 682 mmHg 80%
    21:00 +18°C° 0 mm 2 m/s 682 mmHg 80%
    22:00 +18°C° 0 mm 2 m/s 682 mmHg 79%
    23:00 +18°C° 0 mm 2 m/s 682 mmHg 79%

    Après-demain, 23 Février, Vendredi

    Heure Température Précipitation Vent Pression Humidité
    00:00 +18°C° 0 mm 2 m/s 682 mmHg 78%
    01:00 +18°C° 0 mm 2 m/s 682 mmHg 79%
    02:00 +18°C° 0 mm 2 m/s 681 mmHg 79%
    03:00 +19°C° 0 mm 1 m/s 681 mmHg 79%
    04:00 +19°C° 0 mm 1 m/s 681 mmHg 79%
    05:00 +19°C° 0 mm 1 m/s 681 mmHg 80%
    06:00 +19°C° 0 mm 1 m/s 682 mmHg 80%
    07:00 +20°C° 0 mm 2 m/s 683 mmHg 73%
    08:00 +23°C° 0 mm 2 m/s 683 mmHg 65%
    09:00 +25°C° 0 mm 2 m/s 684 mmHg 58%
    10:00 +27°C° 0 mm 3 m/s 684 mmHg 54%
    11:00 +28°C° 0 mm 3 m/s 684 mmHg 50%
    12:00 +29°C° 0 mm 3 m/s 684 mmHg 46%
    13:00 +29°C° 0 mm 3 m/s 683 mmHg 46%
    14:00 +28°C° 0 mm 3 m/s 682 mmHg 47%
    15:00 +28°C° 0 mm 3 m/s 681 mmHg 47%
    16:00 +26°C° 0,1 mm 2 m/s 681 mmHg 57%
    17:00 +23°C° 0,1 mm 2 m/s 681 mmHg 67%
    18:00 +21°C° 0,1 mm 1 m/s 681 mmHg 77%
    19:00 +20°C° 0 mm 1 m/s 681 mmHg 78%
    20:00 +20°C° 0 mm 1 m/s 681 mmHg 79%
    21:00 +19°C° 0 mm 1 m/s 682 mmHg 80%
    22:00 +19°C° 0 mm 1 m/s 681 mmHg 78%
    23:00 +18°C° 0 mm 1 m/s 681 mmHg 75%

    24 Février, Samedi

    Heure Température Précipitation Vent Pression Humidité
    00:00 +18°C° 0 mm 1 m/s 681 mmHg 73%
    01:00 +18°C° 0 mm 1 m/s 680 mmHg 73%
    02:00 +18°C° 0 mm 1 m/s 680 mmHg 74%
    03:00 +18°C° 0 mm 1 m/s 680 mmHg 75%
    04:00 +16°C° 0 mm 1 m/s 680 mmHg 75%
    05:00 +16°C° 0 mm 1 m/s 680 mmHg 76%
    06:00 +16°C° 0 mm 1 m/s 681 mmHg 76%
    07:00 +20°C° 0 mm 1 m/s 682 mmHg 66%
    08:00 +23°C° 0 mm 1 m/s 683 mmHg 56%
    09:00 +26°C° 0 mm 1 m/s 684 mmHg 46%
    10:00 +27°C° 0 mm 2 m/s 683 mmHg 44%
    11:00 +28°C° 0 mm 2 m/s 683 mmHg 42%
    12:00 +29°C° 0 mm 3 m/s 683 mmHg 40%
    13:00 +28°C° 0,1 mm 2 m/s 682 mmHg 46%
    14:00 +27°C° 0,1 mm 2 m/s 681 mmHg 52%
    15:00 +26°C° 0,1 mm 2 m/s 681 mmHg 58%
    16:00 +24°C° 0,1 mm 2 m/s 681 mmHg 66%
    17:00 +23°C° 0,1 mm 1 m/s 681 mmHg 75%
    18:00 +21°C° 0,1 mm 1 m/s 681 mmHg 83%
    19:00 +20°C° 0 mm 1 m/s 681 mmHg 85%
    20:00 +20°C° 0 mm 1 m/s 681 mmHg 87%
    21:00 +19°C° 0 mm 1 m/s 682 mmHg 89%
    22:00 +19°C° 0 mm 1 m/s 681 mmHg 88%
    23:00 +19°C° 0 mm 1 m/s 681 mmHg 87%

    25 Février, Dimanche

    Heure Température Précipitation Vent Pression Humidité
    00:00 +18°C° 0 mm 1 m/s 681 mmHg 86%
    01:00 +18°C° 0 mm 1 m/s 681 mmHg 85%
    02:00 +18°C° 0 mm 1 m/s 680 mmHg 83%
    03:00 +16°C° 0 mm 1 m/s 680 mmHg 81%
    04:00 +16°C° 0 mm 1 m/s 680 mmHg 80%
    05:00 +16°C° 0 mm 1 m/s 681 mmHg 79%
    06:00 +16°C° 0 mm 1 m/s 681 mmHg 78%
    07:00 +20°C° 0 mm 1 m/s 682 mmHg 69%
    08:00 +23°C° 0 mm 1 m/s 683 mmHg 60%
    09:00 +26°C° 0 mm 1 m/s 684 mmHg 51%
    10:00 +27°C° 0,1 mm 1 m/s 684 mmHg 51%
    11:00 +27°C° 0,1 mm 2 m/s 683 mmHg 51%
    12:00 +28°C° 0,1 mm 2 m/s 683 mmHg 52%
    13:00 +27°C° 0,6 mm 2 m/s 682 mmHg 56%
    14:00 +26°C° 0,6 mm 2 m/s 682 mmHg 60%
    15:00 +25°C° 0,6 mm 2 m/s 681 mmHg 64%
    16:00 +24°C° 0,5 mm 1 m/s 681 mmHg 71%
    17:00 +22°C° 0,5 mm 1 m/s 681 mmHg 79%
    18:00 +21°C° 0,5 mm 1 m/s 681 mmHg 86%
    19:00 +20°C° 0 mm 1 m/s 681 mmHg 88%
    20:00 +20°C° 0 mm 1 m/s 681 mmHg 89%
    21:00 +19°C° 0 mm 1 m/s 682 mmHg 90%
    22:00 +19°C° 0 mm 1 m/s 682 mmHg 89%
    23:00 +19°C° 0 mm 1 m/s 681 mmHg 88%

    26 Février, Lundi

    Heure Température Précipitation Vent Pression Humidité
    00:00 +19°C° 0 mm 1 m/s 681 mmHg 87%
    01:00 +18°C° 0 mm 1 m/s 681 mmHg 86%
    02:00 +18°C° 0 mm 1 m/s 681 mmHg 86%
    03:00 +18°C° 0 mm 1 m/s 680 mmHg 85%
    04:00 +18°C° 0 mm 1 m/s 681 mmHg 84%
    05:00 +18°C° 0 mm 1 m/s 681 mmHg 83%
    06:00 +16°C° 0 mm 1 m/s 681 mmHg 83%
    07:00 +20°C° 0 mm 1 m/s 682 mmHg 74%
    08:00 +23°C° 0 mm 1 m/s 683 mmHg 65%
    09:00 +26°C° 0 mm 1 m/s 684 mmHg 56%
    10:00 +26°C° 0,1 mm 1 m/s 684 mmHg 55%
    11:00 +27°C° 0,1 mm 2 m/s 683 mmHg 54%
    12:00 +28°C° 0,1 mm 2 m/s 683 mmHg 52%
    13:00 +27°C° 0,4 mm 2 m/s 682 mmHg 57%
    14:00 +26°C° 0,4 mm 2 m/s 682 mmHg 62%
    15:00 +25°C° 0,4 mm 1 m/s 681 mmHg 67%
    16:00 +24°C° 0,1 mm 1 m/s 681 mmHg 73%
    17:00 +22°C° 0,1 mm 1 m/s 681 mmHg 79%
    18:00 +21°C° 0,1 mm 1 m/s 681 mmHg 85%
    19:00 +21°C° 0 mm 1 m/s 681 mmHg 87%
    20:00 +20°C° 0 mm 1 m/s 681 mmHg 88%
    21:00 +20°C° 0 mm 1 m/s 682 mmHg 90%
    22:00 +19°C° 0 mm 1 m/s 681 mmHg 90%
    23:00 +19°C° 0 mm 1 m/s 681 mmHg 89%
    Voir plus